Location: Twillingate Astronomical Observatory
(49.6173°N, 54.7580°W)
Time: 23:28:50
(UTC-02:-30)

Amateur Radio Satellites - All Passes

Search period start: 26 March 2015 22:58
Search period end: 27 March 2015 22:58
Location: Twillingate Astronomical Observatory, 49.6173°N, 54.7580°W

Satellite Date Start Highest point End Downlink Frequencies (MHz)
Time Altitude Azimuth
RS-15 26 Mar 23:07:35 23:18:06 47° 334° (NNW) 23:28:56 29.354- 29.394
CINEMA 3 26 Mar 23:11:26 23:13:11 12° 274° (W) 23:14:45 145.822/145.860
UKube-1 26 Mar 23:11:36 23:15:34 34° 263° (W) 23:19:33 .
DX 1 26 Mar 23:17:51 23:21:41 29° 265° (W) 23:25:28 434.975-435.025
CUSAT 1 26 Mar 23:17:52 23:18:40 11° 294° (WNW) 23:19:22 437.405
QB50P1 26 Mar 23:19:29 23:22:23 18° 90° (E) 23:25:23 145.935-145.965
PCSat 26 Mar 23:21:08 23:25:56 31° 37° (NE) 23:30:46 145.827
DUCHIFAT 1 26 Mar 23:23:06 23:26:06 19° 91° (E) 23:29:13 145.980
50 SAT 26 Mar 23:24:37 23:28:25 48° 261° (W) 23:32:15 437.505
YUBILEINY 26 Mar 23:28:35 23:34:30 20° 50° (NE) 23:40:43 435.215
QB50P2 26 Mar 23:32:47 23:36:15 25° 93° (E) 23:39:48 145.880/145.840
GONETS M04 26 Mar 23:36:55 23:41:40 15° 317° (NW) 23:46:02
UNISAT 6 26 Mar 23:38:35 23:43:01 51° 100° (E) 23:47:31 437.425
HUMSAT D 26 Mar 23:38:39 23:42:09 26° 267° (W) 23:45:37 437.325/437.525
VELOX 1 26 Mar 23:44:58 23:49:04 34° 264° (W) 23:53:08 145.980
UWE-3 26 Mar 23:46:04 23:47:26 11° 275° (W) 23:48:35 435.000/436.395/437.385
AISAT 26 Mar 23:48:22 23:52:23 31° 265° (W) 23:56:21 437.250
FUNcube-1 26 Mar 23:49:22 23:51:17 13° 274° (W) 23:53:01 145.935
TIGRISAT 26 Mar 23:50:19 23:54:48 65° 102° (ESE) 23:59:23 435.000
CUBEBUG 1 26 Mar 23:53:47 23:58:09 57° 259° (W) 00:02:30 437.445
POPSAT HIP 1 27 Mar 00:01:56 00:06:01 46° 99° (E) 00:10:06 437.405
ESTCUBE 1 27 Mar 00:07:03 00:11:22 40° 263° (W) 00:15:40 437.505/2401.250
ISS 27 Mar 00:09:54 00:11:45 14° 139° (SE) 00:13:39 145.825
NANOSAT C BR1 27 Mar 00:13:49 00:18:00 61° 101° (E) 00:22:11 145.865
SPROUT 27 Mar 00:14:57 00:19:14 69° 73° (ENE) 00:23:31 437.525
POLYITAN 1 27 Mar 00:15:10 00:19:24 64° 102° (ESE) 00:23:37 437.675
TISAT 1 27 Mar 00:16:01 00:20:11 62° 73° (ENE) 00:24:23 437.305
BUGSAT 1 27 Mar 00:17:52 00:21:48 48° 100° (E) 00:25:43 437.445
ANTELSAT 27 Mar 00:18:59 00:23:30 68° 286° (WNW) 00:28:05 437.575/2403.000
ITUPSAT 1 27 Mar 00:25:32 00:28:49 19° 59° (ENE) 00:32:14 437.325
SO-50 27 Mar 00:38:56 00:41:30 14° 359° (N) 00:44:06 436.795
QB50P1 27 Mar 00:54:29 00:58:37 52° 289° (WNW) 01:02:43 145.935-145.965
DUCHIFAT 1 27 Mar 00:58:11 01:02:16 49° 289° (WNW) 01:06:20 145.980
PCSat 27 Mar 01:04:24 01:09:49 65° 239° (WSW) 01:15:10 145.827
QB50P2 27 Mar 01:08:21 01:12:19 38° 292° (WNW) 01:16:14 145.880/145.840
SWISSCUBE 27 Mar 01:13:11 01:17:47 48° 69° (ENE) 01:22:27 437.505
UNISAT 6 27 Mar 01:15:59 01:19:33 23° 297° (WNW) 01:23:04 437.425
BEESAT 27 Mar 01:16:42 01:21:18 48° 69° (ENE) 01:25:57 436.000
RS-15 27 Mar 01:23:32 01:33:41 38° 7° (N) 01:44:15 29.354- 29.394
YUBILEINY 27 Mar 01:24:32 01:33:23 71° 76° (ENE) 01:42:10 435.215
TIGRISAT 27 Mar 01:28:00 01:31:11 19° 299° (WNW) 01:34:17 435.000
Oscar 19 27 Mar 01:32:06 01:35:24 17° 87° (E) 01:38:51 437.125/150
POPSAT HIP 1 27 Mar 01:38:23 01:41:40 22° 297° (WNW) 01:44:53 437.405
ISS 27 Mar 01:44:28 01:47:42 64° 157° (SSE) 01:50:55 145.825
NANOSAT C BR1 27 Mar 01:50:38 01:53:29 18° 299° (WNW) 01:56:14 145.865
POLYITAN 1 27 Mar 01:52:08 01:54:55 17° 299° (WNW) 01:57:36 437.675
SPROUT 27 Mar 01:53:25 01:55:53 14° 273° (W) 01:58:10 437.525
TISAT 1 27 Mar 01:53:50 01:56:28 16° 272° (W) 01:58:58 437.305
BUGSAT 1 27 Mar 01:54:03 01:57:01 19° 297° (WNW) 01:59:53 437.445
ANTELSAT 27 Mar 01:58:13 01:59:35 11° 305° (NW) 02:00:44 437.575/2403.000
ITUPSAT 1 27 Mar 02:01:26 02:06:15 72° 257° (WSW) 02:11:07 437.325
KKS-1 27 Mar 02:13:37 02:17:39 36° 67° (ENE) 02:21:43 437.445
SO-50 27 Mar 02:20:11 02:23:50 20° 23° (NNE) 02:27:33 436.795
ITAMSAT 1 27 Mar 02:30:48 02:34:24 19° 89° (E) 02:38:10 435.822/435.867
PCSat 27 Mar 02:50:41 02:52:19 11° 257° (WSW) 02:53:38 145.827
SWISSCUBE 27 Mar 02:51:57 02:55:56 25° 268° (W) 02:59:50 437.505
STARS 27 Mar 02:52:17 02:56:34 55° 71° (ENE) 03:00:53 437.465
BEESAT 27 Mar 02:55:28 02:59:25 25° 268° (W) 03:03:19 436.000
Gurwin Techsat 1B 27 Mar 03:01:56 03:06:33 29° 93° (E) 03:11:11 435.225
Oscar 19 27 Mar 03:10:14 03:15:26 76° 286° (WNW) 03:20:36 437.125/150
ISS 27 Mar 03:20:57 03:24:10 59° 355° (N) 03:27:23 145.825
YUBILEINY 27 Mar 03:22:07 03:29:37 31° 278° (W) 03:36:52 435.215
MOZHAYETS 4 27 Mar 03:28:59 03:31:46 16° 59° (ENE) 03:34:43
RS-15 27 Mar 03:37:31 03:48:43 62° 38° (NE) 04:00:28 29.354- 29.394
KKS-1 27 Mar 03:50:28 03:54:22 29° 266° (W) 03:58:14 437.445
SO-50 27 Mar 04:00:25 04:05:21 61° 45° (NE) 04:10:16 436.795
AUBIESAT-1 27 Mar 04:01:22 04:04:30 22° 55° (NE) 04:07:55 437.475
O/OREOS (USA 219) 27 Mar 04:06:08 04:08:02 13° 99° (E) 04:10:08 437.305
ITAMSAT 1 27 Mar 04:09:19 04:14:30 69° 289° (WNW) 04:19:38 435.822/435.867
HORYU 2 27 Mar 04:12:20 04:16:18 30° 95° (E) 04:20:19 437.375
AIST 1 27 Mar 04:18:31 04:22:01 24° 89° (E) 04:25:36
M-CUBED/EXP-1 PRIME 27 Mar 04:22:33 04:26:15 34° 60° (ENE) 04:30:17 437.505
AO-7 27 Mar 04:29:27 04:36:42 33° 93° (E) 04:44:04 29.400- 29.500
STARS 27 Mar 04:30:16 04:33:25 19° 270° (W) 04:36:29 437.465
Gurwin Techsat 1B 27 Mar 04:41:39 04:46:46 47° 292° (WNW) 04:51:49 435.225
JAS-2 27 Mar 04:45:38 04:52:56 41° 92° (E) 04:59:54 435.910
Oscar 19 27 Mar 04:51:12 04:54:02 15° 306° (NW) 04:56:42 437.125/150
ISS 27 Mar 04:57:30 05:00:45 81° 14° (NNE) 05:04:00 145.825
MOZHAYETS 4 27 Mar 05:03:51 05:08:27 79° 255° (WSW) 05:13:10
CUBESAT XI-V 27 Mar 05:08:19 05:10:52 15° 58° (ENE) 05:13:34 437.345
PRISM 27 Mar 05:32:14 05:35:06 18° 61° (ENE) 05:38:05 437.425
AUBIESAT-1 27 Mar 05:35:02 05:38:59 54° 255° (WSW) 05:43:19 437.475
GONETS M04 27 Mar 05:41:30 05:48:42 28° 58° (ENE) 05:56:07
SO-50 27 Mar 05:41:30 05:45:37 26° 244° (WSW) 05:49:38 436.795
O/OREOS (USA 219) 27 Mar 05:42:13 05:46:49 89° 287° (WNW) 05:51:28 437.305
HORYU 2 27 Mar 05:48:54 05:53:01 35° 294° (WNW) 05:57:06 437.375
RS-15 27 Mar 05:50:15 06:01:16 55° 243° (WSW) 06:12:39 29.354- 29.394
ITAMSAT 1 27 Mar 05:50:38 05:53:10 13° 308° (NW) 05:55:31 435.822/435.867
AIST 1 27 Mar 05:55:20 05:59:31 39° 287° (WNW) 06:03:40
M-CUBED/EXP-1 PRIME 27 Mar 05:57:39 06:01:13 29° 261° (W) 06:05:02 437.505
Cubesat XI-IV 27 Mar 06:10:15 06:12:56 14° 85° (E) 06:15:52 437.490
CUTE-I 27 Mar 06:10:55 06:13:36 14° 85° (E) 06:16:31 437.470
AO-7 27 Mar 06:21:57 06:30:11 69° 295° (WNW) 06:38:23 29.400- 29.500
STRAND 1 27 Mar 06:23:33 06:28:20 41° 66° (ENE) 06:33:11 437.568
JAS-2 27 Mar 06:30:34 06:38:14 55° 294° (WNW) 06:45:27 435.910
ISS 27 Mar 06:34:08 06:36:57 28° 214° (SW) 06:39:45 145.825
CUBESAT XI-V 27 Mar 06:42:58 06:47:42 90° 55° (NE) 06:52:27 437.345
MOZHAYETS 4 27 Mar 06:45:30 06:46:37 11° 277° (W) 06:47:27
PRISM 27 Mar 07:06:03 07:10:14 58° 258° (WSW) 07:14:26 437.425
O/OREOS (USA 219) 27 Mar 07:23:55 07:27:00 17° 318° (NW) 07:29:59 437.305
GONETS M04 27 Mar 07:37:56 07:46:48 84° 262° (W) 07:55:39
Cubesat XI-IV 27 Mar 07:48:34 07:53:57 87° 102° (ESE) 07:59:18 437.490
CUTE-I 27 Mar 07:49:13 07:54:35 87° 101° (E) 07:59:56 437.470
CUSAT 1 27 Mar 08:03:00 08:06:29 40° 75° (ENE) 08:11:02 437.405
STRAND 1 27 Mar 08:03:01 08:07:40 32° 265° (W) 08:12:16 437.568
RS-15 27 Mar 08:06:08 08:11:21 13° 265° (W) 08:15:41 29.354- 29.394
AO-7 27 Mar 08:15:44 08:21:43 22° 318° (NW) 08:27:28 29.400- 29.500
JAS-2 27 Mar 08:17:01 08:21:43 17° 315° (NW) 08:26:06 435.910
BRITE-PL 27 Mar 08:22:25 08:23:55 12° 86° (E) 08:25:37 437.365/2234.400
CUBESAT XI-V 27 Mar 08:23:45 08:25:56 13° 276° (W) 08:27:54 437.345
DANDE 27 Mar 08:35:55 08:39:20 63° 76° (ENE) 08:43:52 436.750
VERMONT LUNAR 27 Mar 08:54:42 08:56:58 17° 174° (S) 08:59:15 437.305
CANX-2 27 Mar 08:55:11 08:57:58 17° 88° (E) 09:00:52 2200.000
HO-68 27 Mar 09:07:47 09:13:57 30° 92° (E) 09:20:13 435.675
UNISAT 6 27 Mar 09:08:58 09:10:11 11° 55° (NE) 09:11:36 437.425
CUTE 1.7 + AOD 2 27 Mar 09:09:11 09:12:28 21° 91° (E) 09:15:48 437.475
PHONESAT 2.4 27 Mar 09:13:27 09:15:44 16° 169° (S) 09:18:03 2401.200-2431.200
TIGRISAT 27 Mar 09:19:35 09:21:37 14° 58° (ENE) 09:23:49 435.000
GOMX 1 27 Mar 09:21:07 09:24:51 30° 95° (E) 09:28:43 467.674
DOVE 4 27 Mar 09:22:43 09:26:06 23° 92° (E) 09:29:38 437.250
CINEMA 3 27 Mar 09:22:45 09:24:45 13° 87° (E) 09:26:59 145.822/145.860
Cubesat XI-IV 27 Mar 09:29:49 09:33:27 18° 304° (NW) 09:36:55 437.490
CUTE-I 27 Mar 09:30:27 09:34:04 18° 304° (NW) 09:37:31 437.470
GONETS M04 27 Mar 09:36:15 09:42:28 21° 284° (WNW) 09:48:20
NANOSAT C BR1 27 Mar 09:38:10 09:39:33 12° 57° (ENE) 09:41:04 145.865
POLYITAN 1 27 Mar 09:39:41 09:41:18 12° 57° (ENE) 09:43:05 437.675
DELFI C3 27 Mar 09:41:52 09:42:23 10° 84° (E) 09:43:07 145.870
SEEDS 27 Mar 09:41:56 09:45:55 36° 96° (E) 09:49:55 437.485
AAUSAT CUBESAT 2 27 Mar 09:43:37 09:47:17 28° 94° (E) 09:50:58 437.432
CUSAT 1 27 Mar 09:46:17 09:49:15 20° 264° (W) 09:52:42 437.405
ANTELSAT 27 Mar 09:46:51 09:50:14 24° 63° (ENE) 09:53:44 437.575/2403.000
Oscar 11 27 Mar 09:49:49 09:52:40 17° 89° (E) 09:55:39 145.826/435.025
CUBEBUG 2 27 Mar 09:52:02 09:54:27 15° 88° (E) 09:57:06 437.445
UWE-3 27 Mar 09:53:01 09:54:52 13° 86° (E) 09:56:57 435.000/436.395/437.385
FUNcube-1 27 Mar 09:56:29 09:57:28 11° 85° (E) 09:58:42 145.935
BRITE-PL 27 Mar 09:58:57 10:03:07 77° 286° (WNW) 10:07:22 437.365/2234.400
ZACube-1 27 Mar 10:07:12 10:09:32 14° 87° (E) 10:12:03 437.345
COMPASS 1 27 Mar 10:08:17 10:12:29 56° 100° (E) 10:16:40 437.405
QB50P1 27 Mar 10:16:28 10:19:54 25° 64° (ENE) 10:23:24 145.935-145.965
DUCHIFAT 1 27 Mar 10:19:47 10:23:16 26° 65° (ENE) 10:26:49 145.980
DANDE 27 Mar 10:21:09 10:22:34 11° 267° (W) 10:23:52 436.750
QB50P2 27 Mar 10:29:55 10:33:43 33° 67° (ENE) 10:37:33 145.880/145.840
CANX-2 27 Mar 10:30:04 10:34:20 59° 288° (WNW) 10:38:35 2200.000
VERMONT LUNAR 27 Mar 10:31:58 10:34:00 15° 191° (S) 10:36:02 437.305
UNISAT 6 27 Mar 10:42:01 10:46:16 76° 74° (ENE) 10:50:37 437.425
CUTE 1.7 + AOD 2 27 Mar 10:44:30 10:48:39 47° 290° (WNW) 10:52:47 437.475
BEESAT 2 27 Mar 10:46:48 10:48:51 14° 112° (ESE) 10:51:02 435.950
PHONESAT 2.4 27 Mar 10:50:53 10:53:23 18° 186° (S) 10:55:54 2401.200-2431.200
TIGRISAT 27 Mar 10:53:32 10:57:48 86° 256° (WSW) 11:02:08 435.000
UKube-1 27 Mar 10:54:42 10:58:28 29° 95° (E) 11:02:15 .
HO-68 27 Mar 10:55:06 11:02:16 66° 293° (WNW) 11:09:21 435.675
CINEMA 3 27 Mar 10:58:14 11:02:33 77° 285° (WNW) 11:07:02 145.822/145.860
POPSAT HIP 1 27 Mar 10:58:53 11:03:03 62° 72° (ENE) 11:07:14 437.405
50 SAT 27 Mar 10:59:06 11:01:33 16° 89° (E) 11:04:09 437.505
GOMX 1 27 Mar 10:59:20 11:03:02 30° 293° (WNW) 11:06:47 467.674
DOVE 4 27 Mar 11:00:05 11:04:05 42° 290° (WNW) 11:08:13 437.250
DX 1 27 Mar 11:01:19 11:05:17 35° 97° (E) 11:09:17 434.975-435.025
NANOSAT C BR1 27 Mar 11:10:32 11:14:45 81° 75° (ENE) 11:19:00 145.865
BUGSAT 1 27 Mar 11:11:57 11:16:04 62° 73° (ENE) 11:20:10 437.445
POLYITAN 1 27 Mar 11:12:24 11:16:37 86° 79° (ENE) 11:20:53 437.675
DELFI C3 27 Mar 11:14:08 11:18:17 89° 289° (WNW) 11:22:24 145.870
HUMSAT D 27 Mar 11:17:43 11:21:37 36° 96° (E) 11:25:35 437.325/437.525
SEEDS 27 Mar 11:17:59 11:21:38 27° 295° (WNW) 11:25:14 437.485
AAUSAT CUBESAT 2 27 Mar 11:19:07 11:22:58 34° 292° (WNW) 11:26:47 437.432
ANTELSAT 27 Mar 11:22:45 11:26:50 43° 262° (W) 11:31:00 437.575/2403.000
Oscar 11 27 Mar 11:24:58 11:29:17 59° 288° (WNW) 11:33:35 145.826/435.025
BEESAT 3 27 Mar 11:24:59 11:28:42 34° 120° (ESE) 11:32:30 437.485
CUBEBUG 2 27 Mar 11:27:21 11:31:40 70° 287° (WNW) 11:36:07 437.445
UWE-3 27 Mar 11:27:41 11:32:03 81° 283° (WNW) 11:36:30 435.000/436.395/437.385
FUNcube-1 27 Mar 11:30:12 11:34:33 87° 104° (ESE) 11:38:58 145.935
VELOX 1 27 Mar 11:30:58 11:34:56 32° 95° (E) 11:38:54 145.980
AISAT 27 Mar 11:34:26 11:38:29 35° 96° (E) 11:42:34 437.250
CUBEBUG 1 27 Mar 11:39:07 11:42:14 20° 90° (E) 11:45:27 437.445
BRITE-PL 27 Mar 11:40:19 11:41:03 10° 303° (WNW) 11:41:34 437.365/2234.400
ZACube-1 27 Mar 11:42:07 11:46:26 71° 287° (WNW) 11:50:50 437.345
AIST 2 27 Mar 11:42:55 11:45:53 19° 114° (ESE) 11:48:57 435.215
COMPASS 1 27 Mar 11:44:47 11:47:51 19° 298° (WNW) 11:50:49 437.405
QB50P1 27 Mar 11:51:39 11:55:38 39° 263° (W) 11:59:37 145.935-145.965
DUCHIFAT 1 27 Mar 11:55:04 11:59:00 37° 263° (W) 12:02:56 145.980
ESTCUBE 1 27 Mar 11:55:23 11:59:25 31° 95° (E) 12:03:28 437.505/2401.250
QB50P2 27 Mar 12:05:58 12:09:40 28° 266° (W) 12:13:21 145.880/145.840
UNISAT 6 27 Mar 12:21:37 12:23:44 13° 274° (W) 12:25:40 437.425
BEESAT 2 27 Mar 12:22:17 12:26:26 85° 307° (NW) 12:30:39 435.950
UKube-1 27 Mar 12:30:43 12:34:41 35° 293° (WNW) 12:38:35 .
PHONESAT 2.4 27 Mar 12:30:46 12:30:57 10° 202° (SSW) 12:31:03 2401.200-2431.200
O/OREOS (USA 219) 27 Mar 12:31:13 12:32:43 12° 35° (NE) 12:34:21 437.305
50 SAT 27 Mar 12:32:55 12:36:53 56° 287° (WNW) 12:40:49 437.505
TIGRISAT 27 Mar 12:34:57 12:35:23 10° 276° (W) 12:35:35 435.000
POPSAT HIP 1 27 Mar 12:36:46 12:39:24 16° 271° (W) 12:41:55 437.405
CINEMA 3 27 Mar 12:37:40 12:39:10 11° 303° (WNW) 12:40:29 145.822/145.860
DX 1 27 Mar 12:37:42 12:41:30 29° 295° (WNW) 12:45:13 434.975-435.025
YUBILEINY 27 Mar 12:39:03 12:43:43 16° 73° (ENE) 12:48:53 435.215
HO-68 27 Mar 12:44:07 12:48:50 19° 314° (NW) 12:53:19 435.675
BUGSAT 1 27 Mar 12:49:29 12:52:01 15° 271° (W) 12:54:23 437.445
NANOSAT C BR1 27 Mar 12:49:31 12:51:17 12° 274° (W) 12:52:50 145.865
Gurwin Techsat 1B 27 Mar 12:50:51 12:53:20 14° 53° (NE) 12:56:02 435.225
DELFI C3 27 Mar 12:51:08 12:52:52 12° 302° (WNW) 12:54:28 145.870
POLYITAN 1 27 Mar 12:51:50 12:53:15 11° 275° (W) 12:54:28 437.675
Oscar 19 27 Mar 12:52:50 12:57:31 38° 66° (ENE) 13:02:16 437.125/150
HUMSAT D 27 Mar 12:53:42 12:57:19 27° 294° (WNW) 13:00:53 437.325/437.525
BEESAT 3 27 Mar 13:02:54 13:06:46 37° 320° (NW) 13:10:39 437.485
UWE-3 27 Mar 13:06:11 13:07:59 12° 302° (WNW) 13:09:39 435.000/436.395/437.385
CUBEBUG 2 27 Mar 13:06:43 13:07:42 11° 304° (WNW) 13:08:30 437.445
VELOX 1 27 Mar 13:07:33 13:11:31 32° 294° (WNW) 13:15:24 145.980
FUNcube-1 27 Mar 13:08:07 13:10:21 14° 301° (WNW) 13:12:28 145.935
AISAT 27 Mar 13:11:11 13:15:03 29° 295° (WNW) 13:18:50 437.250
CUBEBUG 1 27 Mar 13:14:43 13:18:57 51° 290° (WNW) 13:23:09 437.445
AIST 2 27 Mar 13:19:49 13:24:04 67° 312° (NW) 13:28:23 435.215
ZACube-1 27 Mar 13:21:00 13:22:08 11° 304° (WNW) 13:23:05 437.345
TISAT 1 27 Mar 13:32:03 13:36:13 62° 101° (E) 13:40:23 437.305
ESTCUBE 1 27 Mar 13:32:12 13:36:20 34° 294° (WNW) 13:40:24 437.505/2401.250
SPROUT 27 Mar 13:33:18 13:37:36 76° 103° (ESE) 13:41:53 437.525
AO-7 27 Mar 13:44:02 13:49:37 21° 41° (NE) 13:55:25 29.400- 29.500
ITAMSAT 1 27 Mar 13:52:36 13:57:33 45° 67° (ENE) 14:02:32 435.822/435.867
ITUPSAT 1 27 Mar 13:58:22 14:02:03 22° 91° (E) 14:05:49 437.325
BEESAT 2 27 Mar 14:02:05 14:05:13 20° 331° (NNW) 14:08:19 435.950
O/OREOS (USA 219) 27 Mar 14:08:50 14:13:19 52° 58° (ENE) 14:17:46 437.305
AIST 1 27 Mar 14:22:31 14:23:32 11° 58° (ENE) 14:24:44
Gurwin Techsat 1B 27 Mar 14:27:13 14:32:29 69° 72° (ENE) 14:37:48 435.225
YUBILEINY 27 Mar 14:30:19 14:39:01 69° 94° (E) 14:47:49 435.215
Oscar 19 27 Mar 14:32:16 14:36:56 34° 265° (W) 14:41:36 437.125/150
BEESAT 3 27 Mar 14:43:57 14:45:58 13° 342° (NNW) 14:47:55 437.485
SWISSCUBE 27 Mar 14:46:43 14:51:30 64° 102° (ESE) 14:56:15 437.505
BEESAT 27 Mar 14:50:07 14:54:55 63° 102° (ESE) 14:59:40 436.000
AIST 2 27 Mar 15:00:26 15:03:28 18° 334° (NNW) 15:06:27 435.215
JAS-2 27 Mar 15:02:14 15:08:14 31° 56° (ENE) 15:14:47 435.910
TISAT 1 27 Mar 15:08:51 15:11:38 17° 299° (WNW) 15:14:20 437.305
SPROUT 27 Mar 15:10:41 15:13:12 15° 301° (WNW) 15:15:36 437.525
HORYU 2 27 Mar 15:14:46 15:19:01 48° 69° (ENE) 15:23:20 437.375
ITAMSAT 1 27 Mar 15:32:40 15:37:15 30° 266° (W) 15:41:48 435.822/435.867
AO-7 27 Mar 15:32:54 15:41:04 65° 64° (ENE) 15:49:16 29.400- 29.500
ITUPSAT 1 27 Mar 15:35:35 15:40:19 54° 290° (WNW) 15:44:58 437.325
KKS-1 27 Mar 15:36:35 15:40:46 38° 98° (E) 15:44:56 437.445
BEESAT 2 27 Mar 15:44:20 15:44:55 10° 355° (N) 15:45:29 435.950
O/OREOS (USA 219) 27 Mar 15:48:54 15:52:27 22° 257° (WSW) 15:55:52 437.305
PCSat 27 Mar 15:50:10 15:55:19 47° 117° (ESE) 16:00:33 145.827
AIST 1 27 Mar 15:57:43 16:02:06 81° 81° (E) 16:06:23
Gurwin Techsat 1B 27 Mar 16:09:07 16:13:03 20° 272° (W) 16:16:51 435.225
STARS 27 Mar 16:14:00 16:18:22 59° 101° (E) 16:22:43 437.465
BEESAT 3 27 Mar 16:25:19 16:25:45 10° 6° (N) 16:26:14 437.485
SWISSCUBE 27 Mar 16:25:23 16:28:59 21° 300° (WNW) 16:32:27 437.505
BEESAT 27 Mar 16:28:46 16:32:22 21° 300° (WNW) 16:35:51 436.000
YUBILEINY 27 Mar 16:28:47 16:36:40 34° 298° (WNW) 16:44:28 435.215
AIST 2 27 Mar 16:42:46 16:43:43 11° 358° (N) 16:44:39 435.215
JAS-2 27 Mar 16:45:44 16:52:39 73° 258° (WSW) 17:00:23 435.910
HORYU 2 27 Mar 16:52:29 16:55:58 22° 269° (W) 16:59:23 437.375
MOZHAYETS 4 27 Mar 16:55:30 16:58:45 19° 89° (E) 17:02:07
KKS-1 27 Mar 17:13:29 17:17:18 28° 295° (WNW) 17:21:02 437.445
BEESAT 2 27 Mar 17:22:45 17:24:49 13° 18° (NNE) 17:26:56 435.950
AO-7 27 Mar 17:26:56 17:34:27 35° 266° (W) 17:41:51 29.400- 29.500
PCSat 27 Mar 17:33:50 17:38:54 38° 318° (NW) 17:44:00 145.827
M-CUBED/EXP-1 PRIME 27 Mar 17:35:13 17:38:19 17° 93° (E) 17:41:33 437.505
Cubesat XI-IV 27 Mar 17:35:46 17:40:37 37° 65° (ENE) 17:45:33 437.490
CUTE-I 27 Mar 17:36:16 17:41:07 37° 65° (ENE) 17:46:02 437.470
AIST 1 27 Mar 17:37:29 17:39:08 12° 277° (W) 17:40:35
STARS 27 Mar 17:51:18 17:54:29 19° 299° (WNW) 17:57:33 437.465
HO-68 27 Mar 17:59:57 18:01:36 11° 36° (NE) 18:03:32 435.675
BEESAT 3 27 Mar 18:02:15 18:05:21 20° 29° (NNE) 18:08:29 437.485
RS-15 27 Mar 18:12:41 18:18:28 17° 98° (E) 18:24:59 29.354- 29.394
AIST 2 27 Mar 18:21:25 18:24:03 16° 22° (NNE) 18:26:43 435.215
MOZHAYETS 4 27 Mar 18:31:49 18:36:26 60° 288° (WNW) 18:41:00
JAS-2 27 Mar 18:34:53 18:39:20 17° 282° (WNW) 18:43:39 435.910
CUBESAT XI-V 27 Mar 18:36:29 18:39:27 17° 87° (E) 18:42:33 437.345
PRISM 27 Mar 18:45:39 18:47:58 15° 88° (E) 18:50:26 437.425
AUBIESAT-1 27 Mar 18:46:21 18:51:10 63° 107° (ESE) 18:55:57 437.475
GONETS M04 27 Mar 18:50:11 18:56:37 25° 79° (ENE) 19:03:21
BEESAT 2 27 Mar 19:00:09 19:04:05 39° 41° (NE) 19:07:59 435.950
M-CUBED/EXP-1 PRIME 27 Mar 19:08:53 19:13:45 77° 293° (WNW) 19:18:36 437.505
Cubesat XI-IV 27 Mar 19:15:41 19:20:44 39° 263° (W) 19:25:45 437.490
CUTE-I 27 Mar 19:16:10 19:21:12 39° 263° (W) 19:26:13 437.470
PCSat 27 Mar 19:20:43 19:23:54 15° 342° (NNW) 19:27:02 145.827
BRITE-PL 27 Mar 19:36:40 19:40:27 26° 66° (ENE) 19:44:07 437.365/2234.400
BEESAT 3 27 Mar 19:39:51 19:44:01 89° 46° (NE) 19:48:06 437.485
HO-68 27 Mar 19:41:03 19:47:27 38° 58° (ENE) 19:53:58 435.675
CANX-2 27 Mar 19:52:29 19:55:43 22° 63° (ENE) 19:59:03 2200.000
SO-50 27 Mar 19:59:18 20:03:37 39° 120° (ESE) 20:08:08 436.795
AIST 2 27 Mar 19:59:25 20:03:37 51° 44° (NE) 20:07:44 435.215
CUTE 1.7 + AOD 2 27 Mar 20:06:24 20:09:56 27° 65° (ENE) 20:13:33 437.475
STRAND 1 27 Mar 20:08:20 20:13:26 62° 101° (ESE) 20:18:29 437.568
MOZHAYETS 4 27 Mar 20:12:14 20:12:48 10° 307° (NW) 20:13:09
CUBESAT XI-V 27 Mar 20:12:48 20:17:27 66° 287° (WNW) 20:22:00 437.345
RS-15 27 Mar 20:18:04 20:28:43 66° 120° (ESE) 20:39:42 29.354- 29.394
PRISM 27 Mar 20:19:47 20:23:58 65° 288° (WNW) 20:28:05 437.425
AUBIESAT-1 27 Mar 20:21:47 20:25:36 23° 305° (NW) 20:29:21 437.475
CINEMA 3 27 Mar 20:28:52 20:31:53 20° 63° (ENE) 20:35:00 145.822/145.860
DOVE 4 27 Mar 20:32:47 20:36:46 38° 69° (ENE) 20:40:41 437.250
DELFI C3 27 Mar 20:33:28 20:35:23 13° 59° (ENE) 20:37:27 145.870
GOMX 1 27 Mar 20:33:35 20:37:58 56° 72° (ENE) 20:42:09 467.674
SEEDS 27 Mar 20:38:14 20:42:14 44° 70° (ENE) 20:46:19 437.485
BEESAT 2 27 Mar 20:38:26 20:42:12 33° 241° (WSW) 20:45:52 435.950
AAUSAT CUBESAT 2 27 Mar 20:38:46 20:42:31 34° 68° (ENE) 20:46:21 437.432
GONETS M04 27 Mar 20:43:46 20:52:30 85° 279° (W) 21:01:20
M-CUBED/EXP-1 PRIME 27 Mar 20:45:06 20:47:57 16° 310° (NW) 20:50:41 437.505
Oscar 11 27 Mar 20:48:47 20:52:12 24° 64° (ENE) 20:55:43 145.826/435.025
UWE-3 27 Mar 20:54:35 20:57:20 18° 61° (ENE) 21:00:11 435.000/436.395/437.385
CUBEBUG 2 27 Mar 20:54:49 20:57:53 21° 63° (ENE) 21:01:02 437.445
FUNcube-1 27 Mar 20:56:18 20:58:40 15° 60° (ENE) 21:01:11 145.935
COMPASS 1 27 Mar 21:03:43 21:07:52 67° 73° (ENE) 21:12:05 437.405
PCSat 27 Mar 21:07:13 21:09:39 13° 8° (N) 21:12:10 145.827
ZACube-1 27 Mar 21:07:41 21:10:37 20° 62° (ENE) 21:13:41 437.345
BRITE-PL 27 Mar 21:14:25 21:18:54 42° 262° (W) 21:23:06 437.365/2234.400
CUSAT 1 27 Mar 21:19:09 21:21:21 21° 96° (E) 21:23:27 437.405
BEESAT 3 27 Mar 21:19:33 21:21:30 13° 249° (WSW) 21:23:15 437.485
CANX-2 27 Mar 21:27:18 21:31:24 47° 261° (W) 21:35:33 2200.000
HO-68 27 Mar 21:27:56 21:34:59 57° 259° (W) 21:42:04 435.675
AIST 2 27 Mar 21:38:28 21:41:59 25° 243° (WSW) 21:45:23 435.215
SO-50 27 Mar 21:39:43 21:44:13 41° 321° (NW) 21:48:50 436.795
CUTE 1.7 + AOD 2 27 Mar 21:41:48 21:45:45 37° 264° (W) 21:49:43 437.475
STRAND 1 27 Mar 21:48:15 21:52:17 23° 300° (WNW) 21:56:11 437.568
50 SAT 27 Mar 21:49:45 21:52:25 18° 62° (ENE) 21:55:11 437.505
CUBESAT XI-V 27 Mar 21:52:43 21:54:04 11° 306° (NW) 21:55:14 437.345
UKube-1 27 Mar 21:53:38 21:57:45 43° 69° (ENE) 22:01:54 .
DANDE 27 Mar 21:55:14 21:58:13 49° 99° (E) 22:00:49 436.750
DX 1 27 Mar 22:00:56 22:05:11 53° 70° (ENE) 22:09:28 434.975-435.025
CINEMA 3 27 Mar 22:04:47 22:08:52 48° 261° (W) 22:12:55 145.822/145.860
DELFI C3 27 Mar 22:05:57 22:10:02 81° 256° (WSW) 22:14:09 145.870
DOVE 4 27 Mar 22:11:07 22:14:43 24° 267° (W) 22:18:11 437.250
GOMX 1 27 Mar 22:13:24 22:16:30 18° 270° (W) 22:19:23 467.674
HUMSAT D 27 Mar 22:13:55 22:17:48 44° 70° (ENE) 22:21:45 437.325/437.525
AAUSAT CUBESAT 2 27 Mar 22:14:36 22:18:13 28° 266° (W) 22:21:51 437.432
SEEDS 27 Mar 22:15:01 22:18:18 21° 269° (W) 22:21:32 437.485
Oscar 11 27 Mar 22:24:03 22:28:12 43° 262° (W) 22:32:22 145.826/435.025
UWE-3 27 Mar 22:29:26 22:33:31 57° 260° (W) 22:37:39 435.000/436.395/437.385
CUBEBUG 2 27 Mar 22:30:20 22:34:21 47° 261° (W) 22:38:23 437.445
FUNcube-1 27 Mar 22:30:27 22:34:34 69° 258° (WSW) 22:38:44 145.935
RS-15 27 Mar 22:30:56 22:41:38 54° 328° (NNW) 22:52:38 29.354- 29.394
UNISAT 6 27 Mar 22:31:14 22:33:03 12° 85° (E) 22:35:07 437.425
VELOX 1 27 Mar 22:32:41 22:36:59 50° 70° (ENE) 22:41:18 145.980
AISAT 27 Mar 22:36:24 22:40:45 55° 70° (ENE) 22:45:07 437.250
CUBEBUG 1 27 Mar 22:39:20 22:43:07 29° 65° (ENE) 22:46:57 437.445
YUBILEINY 27 Mar 22:40:26 22:43:24 12° 38° (NE) 22:46:50 435.215
COMPASS 1 27 Mar 22:41:43 22:44:07 14° 273° (W) 22:46:21 437.405
TIGRISAT 27 Mar 22:41:51 22:44:27 15° 88° (E) 22:47:15 435.000
ZACube-1 27 Mar 22:42:40 22:46:43 51° 261° (W) 22:50:48 437.345
GONETS M04 27 Mar 22:44:06 22:50:57 24° 306° (NW) 22:57:35
POLYITAN 1 27 Mar 22:56:15 22:57:02 11° 85° (E) 22:58:01 437.675
